Weather History for KJYR - March, 2013

Change the Weather History Date:

Sunday, March 31, 2013

  Actual Average Record
Temperature  
Mean Temperature 46 °F -  
Max Temperature 59 °F 57 °F 90 °F (1978)
Min Temperature 33 °F 33 °F 9 °F (1987)
Degree Days  
Heating Degree Days 19    
Moisture  
Dew Point 33 °F    
Average Humidity 61    
Maximum Humidity 93    
Minimum Humidity 29    
Precipitation  
Precipitation 0.01 in - - ()
Sea Level Pressure  
Sea Level Pressure 30.01 in    
Wind  
Wind Speed 11 mph (NNW)    
Max Wind Speed 28 mph    
Max Gust Speed 34 mph    
Visibility 10 miles    
Events Rain    
Averages and records for this station are not official NWS values.
T = Trace of Precipitation, MM = Missing Value Source: NWS Daily Summary

Daily Weather History Graph

Daily Weather History Graph

Search for Another Location

Airport or City:

Trip Planner

Search our weather history database for the weather conditions in past years. The results will help you decide how hot, cold, wet, or windy it might be!

Date:

Astronomy

Mar. 31, 2013 Rise Set
Actual Time 7:15 AM CDT 7:54 PM CDT
Civil Twilight 6:47 AM CDT 8:22 PM CDT
Nautical Twilight 6:14 AM CDT 8:55 PM CDT
Astronomical Twilight 5:41 AM CDT 9:28 PM CDT
Moon 12:03 AM CDT (3/31) 10:02 AM CDT (3/31)
Length of Visible Light 13h 34m
Length of Day
12h 39m
Waning Gibbous, 77% of the Moon is Illuminated
Mar 31
Waning Gibbous
Apr 2
Last Quarter
Apr 10
New
Apr 18
First Quarter
Apr 25
Full

Hourly Weather History & Observations

Time (CDT) Temp. Windchill Dew Point Humidity Pressure Visibility Wind Dir Wind Speed Gust Speed Precip Events Conditions
12:15 AM 48.2 °F - 44.6 °F 87% 30.02 in 10.0 mi NNW 9.2 mph - N/A   Overcast
12:35 AM 50.0 °F - 41.0 °F 71% 30.01 in 10.0 mi NW 10.4 mph - N/A   Mostly Cloudy
12:55 AM 51.8 °F - 37.4 °F 58% 30.02 in 10.0 mi NW 13.8 mph - N/A Rain Light Rain
1:15 AM 53.6 °F - 35.6 °F 51% 29.99 in 10.0 mi West 4.6 mph - N/A   Overcast
1:35 AM 53.6 °F - 35.6 °F 51% 30.00 in 10.0 mi West 8.1 mph - N/A   Overcast
1:55 AM 46.4 °F 41.5 °F 39.2 °F 76% 30.01 in 10.0 mi NW 10.4 mph - N/A   Scattered Clouds
2:15 AM 46.4 °F 41.9 °F 41.0 °F 81% 30.01 in 10.0 mi West 9.2 mph - N/A   Clear
2:35 AM 44.6 °F 40.2 °F 41.0 °F 87% 30.01 in 10.0 mi West 8.1 mph - N/A   Clear
2:55 AM 44.6 °F 39.2 °F 41.0 °F 87% 30.01 in 10.0 mi West 10.4 mph - N/A   Clear
3:15 AM 42.8 °F 37.0 °F 41.0 °F 93% 30.01 in 10.0 mi West 10.4 mph - N/A   Clear
3:35 AM 42.8 °F 37.0 °F 39.2 °F 87% 30.00 in 10.0 mi West 10.4 mph - N/A   Clear
3:55 AM 42.8 °F 36.6 °F 39.2 °F 87% 29.99 in 10.0 mi WNW 11.5 mph - N/A   Clear
4:15 AM 41.0 °F 33.5 °F 39.2 °F 93% 29.99 in 10.0 mi WNW 13.8 mph - N/A   Clear
4:35 AM 41.0 °F 33.9 °F 37.4 °F 87% 29.99 in 10.0 mi WNW 12.7 mph - N/A   Clear
4:55 AM 41.0 °F 33.5 °F 37.4 °F 87% 29.99 in 10.0 mi WNW 13.8 mph - N/A   Clear
5:15 AM 41.0 °F 33.5 °F 37.4 °F 87% 29.99 in 10.0 mi NW 13.8 mph - N/A   Clear
5:35 AM 41.0 °F 33.1 °F 37.4 °F 87% 29.99 in 10.0 mi NW 15.0 mph - N/A   Clear
5:55 AM 41.0 °F 33.5 °F 35.6 °F 81% 30.00 in 10.0 mi NW 13.8 mph - N/A   Clear
6:15 AM 41.0 °F 33.5 °F 35.6 °F 81% 30.00 in 10.0 mi NW 13.8 mph - N/A   Clear
6:35 AM 39.2 °F 30.8 °F 35.6 °F 87% 30.00 in 10.0 mi NW 15.0 mph - N/A   Clear
6:55 AM 39.2 °F 31.2 °F 35.6 °F 87% 30.01 in 10.0 mi NNW 13.8 mph - N/A   Clear
7:15 AM 39.2 °F 31.2 °F 35.6 °F 87% 30.01 in 10.0 mi NNW 13.8 mph - N/A   Clear
7:35 AM 37.4 °F 29.8 °F 35.6 °F 93% 30.02 in 10.0 mi NW 11.5 mph - N/A   Clear
7:55 AM 39.2 °F 31.2 °F 35.6 °F 87% 30.02 in 10.0 mi NNW 13.8 mph - N/A   Clear
8:15 AM 39.2 °F 31.2 °F 35.6 °F 87% 30.03 in 10.0 mi NNW 13.8 mph - N/A   Clear
8:35 AM 41.0 °F 33.5 °F 37.4 °F 87% 30.04 in 10.0 mi NNW 13.8 mph - N/A   Clear
8:55 AM 41.0 °F 34.3 °F 37.4 °F 87% 30.03 in 10.0 mi NNW 11.5 mph 18.4 mph N/A   Clear
9:15 AM 42.8 °F 37.5 °F 35.6 °F 76% 30.03 in 10.0 mi North 9.2 mph - N/A   Clear
9:55 AM 44.6 °F 39.2 °F 35.6 °F 71% 30.03 in 10.0 mi North 10.4 mph - N/A   Clear
10:15 AM 46.4 °F 41.1 °F 33.8 °F 62% 30.03 in 10.0 mi North 11.5 mph - N/A   Clear
10:35 AM 48.2 °F - 33.8 °F 58% 30.03 in 10.0 mi NNW 15.0 mph - N/A   Clear
10:55 AM 48.2 °F - 32.0 °F 54% 30.03 in 10.0 mi North 11.5 mph 19.6 mph N/A   Clear
11:15 AM 50.0 °F - 30.2 °F 47% 30.03 in 10.0 mi North 10.4 mph 19.6 mph N/A   Clear
11:35 AM 50.0 °F - 28.4 °F 43% 30.03 in 10.0 mi NNW 12.7 mph 21.9 mph N/A   Clear
11:55 AM 53.6 °F - 28.4 °F 38% 30.03 in 10.0 mi NNW 15.0 mph 21.9 mph N/A   Clear
12:15 PM 53.6 °F - 28.4 °F 38% 30.03 in 10.0 mi NNW 12.7 mph 18.4 mph N/A   Clear
12:35 PM 53.6 °F - 30.2 °F 41% 30.03 in 10.0 mi North 11.5 mph 16.1 mph N/A   Clear
12:55 PM 55.4 °F - 28.4 °F 36% 30.02 in 10.0 mi North 11.5 mph - N/A   Clear
1:15 PM 55.4 °F - 28.4 °F 36% 30.02 in 10.0 mi North 6.9 mph 18.4 mph N/A   Clear
1:35 PM 55.4 °F - 28.4 °F 36% 30.01 in 10.0 mi North 9.2 mph 18.4 mph N/A   Clear
1:55 PM 55.4 °F - 28.4 °F 36% 30.01 in 10.0 mi North 13.8 mph 18.4 mph N/A   Clear
2:15 PM 57.2 °F - 28.4 °F 33% 30.00 in 10.0 mi North 11.5 mph 17.3 mph N/A   Clear
2:35 PM 57.2 °F - 26.6 °F 31% 29.99 in 10.0 mi North 4.6 mph 20.7 mph N/A   Clear
2:55 PM 57.2 °F - 26.6 °F 31% 29.99 in 10.0 mi NNE 3.5 mph - N/A   Clear
3:15 PM 59.0 °F - 28.4 °F 31% 29.98 in 10.0 mi North 8.1 mph 16.1 mph N/A   Clear
3:35 PM 59.0 °F - 28.4 °F 31% 29.97 in 10.0 mi North 8.1 mph - N/A   Clear
3:55 PM 57.2 °F - 26.6 °F 31% 29.96 in 10.0 mi West 4.6 mph - N/A   Clear
4:15 PM 59.0 °F - 28.4 °F 31% 29.96 in 10.0 mi North 3.5 mph - N/A   Clear
4:35 PM 57.2 °F - 26.6 °F 31% 29.96 in 10.0 mi Calm Calm - N/A   Clear
4:55 PM 59.0 °F - 28.4 °F 31% 29.96 in 10.0 mi North 5.8 mph - N/A   Clear
5:15 PM 59.0 °F - 28.4 °F 31% 29.94 in 10.0 mi WNW 3.5 mph - N/A   Clear
5:35 PM 59.0 °F - 26.6 °F 29% 29.94 in 10.0 mi Calm Calm - N/A   Clear
5:55 PM 57.2 °F - 28.4 °F 33% 29.92 in 10.0 mi Calm Calm - N/A   Partly Cloudy
6:15 PM 59.0 °F - 28.4 °F 31% 29.92 in 10.0 mi West 3.5 mph - N/A   Mostly Cloudy
6:35 PM 57.2 °F - 30.2 °F 36% 29.92 in 10.0 mi Calm Calm - N/A   Overcast
6:55 PM 57.2 °F - 32.0 °F 38% 29.93 in 10.0 mi East 5.8 mph - N/A   Overcast
7:15 PM 55.4 °F - 32.0 °F 41% 29.94 in 10.0 mi ENE 8.1 mph - N/A   Overcast
7:35 PM 53.6 °F - 32.0 °F 44% 29.95 in 10.0 mi East 10.4 mph - N/A   Overcast
7:55 PM 53.6 °F - 32.0 °F 44% 29.96 in 10.0 mi NE 9.2 mph - N/A   Overcast
8:15 PM 48.2 °F - 30.2 °F 50% 29.99 in 10.0 mi NE 24.2 mph 29.9 mph N/A Rain Light Rain
8:35 PM 44.6 °F 36.9 °F 28.4 °F 53% 30.01 in 10.0 mi NE 18.4 mph 33.4 mph N/A Rain Light Rain
8:55 PM 44.6 °F 36.1 °F 28.4 °F 53% 30.03 in 10.0 mi NE 21.9 mph 28.8 mph N/A   Overcast
9:15 PM 44.6 °F 37.2 °F 28.4 °F 53% 30.05 in 10.0 mi NNE 17.3 mph 25.3 mph N/A   Overcast
9:35 PM 41.0 °F 30.2 °F 30.2 °F 65% 30.06 in 10.0 mi NNE 27.6 mph 34.5 mph N/A   Mostly Cloudy
9:55 PM 37.4 °F 25.9 °F 33.8 °F 87% 30.08 in 7.0 mi NNE 25.3 mph 33.4 mph N/A Rain Light Rain
10:15 PM 35.6 °F 23.2 °F 33.8 °F 93% 30.10 in 4.0 mi NE 26.5 mph 32.2 mph 0.01 in   Mostly Cloudy
11:15 PM 33.8 °F 22.5 °F 32.0 °F 93% 30.13 in 10.0 mi NNE 19.6 mph 24.2 mph N/A   Unknown
11:55 PM 33.8 °F 21.6 °F 32.0 °F 93% 30.15 in 10.0 mi NE 23.0 mph - N/A   Overcast